sat.trackr.live / text

‹ back to catalog

FLOCK 4BE-3

NORAD 60561 · 2024-149CX

PAYLOAD ACTIVE UNKNOWN

§ Identity

Operator
Country
US
Launch date
2024-08-16
Launch site
AFWTR
Launch vehicle
Mass (kg)
RCS (m²)

Purposes: earth_obs

External: N2YO · Heavens-Above · Gunter

§ Orbital elements

Epoch: 2026-09-18T11:12:41.696064Z

Period
93.21 min
Inclination
97.3637°
Eccentricity
0.0002572
Mean motion
15.44839701 rev/d
Perigee alt
430.1 km
Apogee alt
433.6 km
Semi-major
6,810.0 km
B*
6.2928e-4
RAAN
346.4369°
Arg perigee
313.9777°
Mean anomaly
46.1259°
Rev number
11,672

§ Raw data

FLOCK 4BE-31 60561U 24149CX  26261.46714926  .00029492  00000+0  62928-3 0  99992 60561  97.3637 346.4369 0002572 313.9777  46.1259 15.44839701116729

JSON: /api/v1/satellites/60561 · /tle

For live sub-satellite position, see the globe view (requires WebGL).

§ Visibility from observer

Set your observer location to see the next 7 days of passes ≥ 10°. The values pass through the URL so the page stays shareable.

No JS? Fill the form by hand. The geolocation button needs JavaScript.